DW1774 Weather Reports


Display with metric or nautical units.
time (UTC)temp
F
wind
direction
speed
MPH
gust
MPH
rain 1hr
in
rain 24hr
in
rain mn
in
humidity
%
barometer
mb
20260904040403 83 126 3.0 5.0 0.00 0.00 0.00 85 1012.4
20260904035404 83 134 2.0 8.0 0.00 0.00 0.00 85 1012.3
20260904034904 83 134 3.0 8.0 0.00 0.00 0.00 85 1012.3
20260904034404 83 137 1.0 8.0 0.00 0.00 0.00 85 1012.4
20260904033904 83 163 2.0 5.0 0.00 0.00 0.00 84 1012.5
20260904032904 83 165 1.0 5.0 0.00 0.00 0.00 84 1012.5
20260904031903 83 161 1.0 7.0 0.00 0.00 0.00 84 1012.5
20260904031405 83 166 3.0 7.0 0.00 0.00 0.00 84 1012.5
20260904030904 83 160 1.0 3.0 0.00 0.00 0.00 84 1012.5
20260904030404 83 138 0.0 5.0 0.00 0.00 0.00 84 1012.5
20260904025903 83 138 2.0 6.0 0.00 0.00 0.00 84 1012.5
20260904025404 84 137 3.0 6.0 0.00 0.00 0.00 84 1012.4
20260904024904 84 163 3.0 5.0 0.00 0.00 0.00 83 1012.4
20260904024404 84 160 1.0 2.0 0.00 0.00 0.00 84 1012.5
20260904022904 84 160 1.0 5.0 0.00 0.00 0.00 84 1012.3
20260904022403 84 129 1.0 5.0 0.00 0.00 0.00 84 1012.3
20260904021903 84 127 2.0 5.0 0.00 0.00 0.00 84 1012.1
20260904021405 84 134 0.0 7.0 0.00 0.00 0.00 84 1012.0
20260904020904 84 121 2.0 7.0 0.00 0.00 0.00 84 1012.0
20260904020403 84 125 2.0 5.0 0.00 0.00 0.00 84 1012.0
20260904015904 84 118 2.0 6.0 0.00 0.00 0.00 84 1012.0
20260904015405 84 94 3.0 6.0 0.00 0.00 0.00 84 1012.0
20260904014903 84 133 2.0 9.0 0.00 0.00 0.00 84 1011.9
20260904014405 84 83 2.0 9.0 0.00 0.00 0.00 84 1011.8
20260904013404 84 131 2.0 9.0 0.00 0.00 0.00 83 1011.7
20260904012903 85 142 3.0 6.0 0.00 0.00 0.00 83 1011.7
20260904012404 85 119 2.0 5.0 0.00 0.00 0.00 82 1011.6
20260904011904 85 110 2.0 5.0 0.00 0.00 0.00 82 1011.7
20260904010904 85 137 0.0 1.0 0.00 0.00 0.00 80 1011.6
20260904010404 85 137 0.0 2.0 0.00 0.00 0.00 80 1011.6
20260904005404 85 137 2.0 3.0 0.00 0.00 0.00 80 1011.6
20260904004904 85 137 2.0 3.0 0.00 0.00 0.00 79 1011.6
20260904004405 85 149 1.0 5.0 0.00 0.00 0.00 79 1011.5
20260904003904 85 158 1.0 5.0 0.00 0.00 0.00 79 1011.6
20260904003403 86 150 2.0 6.0 0.00 0.00 0.00 79 1011.6
20260904002904 86 157 1.0 6.0 0.00 0.00 0.00 79 1011.7
20260904002404 86 154 3.0 6.0 0.00 0.00 0.00 79 1011.7
20260904001904 86 157 3.0 8.0 0.00 0.00 0.00 79 1011.7
20260904001404 86 139 5.0 8.0 0.00 0.00 0.00 79 1011.7
20260904000404 86 163 3.0 6.0 0.00 0.00 0.00 79 1011.7
20260903235905 86 163 3.0 6.0 0.00 0.00 0.00 79 1011.8
20260903235403 86 131 1.0 8.0 0.00 0.00 0.00 79 1011.8
20260903234404 86 132 5.0 10.0 0.00 0.00 0.00 79 1011.8
20260903233904 86 139 2.0 7.0 0.00 0.00 0.00 79 1011.7
20260903233404 86 123 2.0 7.0 0.00 0.00 0.00 78 1011.7
20260903232904 86 121 4.0 8.0 0.00 0.00 0.00 78 1011.6
20260903231905 87 123 3.0 14.0 0.00 0.00 0.00 78 1011.6
20260903231403 87 112 3.0 8.0 0.00 0.00 0.00 78 1011.5
20260903230904 87 133 4.0 10.0 0.00 0.00 0.00 78 1011.5
20260903230404 87 131 5.0 10.0 0.00 0.00 0.00 78 1011.6
20260903225904 87 134 3.0 10.0 0.00 0.00 0.00 78 1011.6
20260903225404 87 132 1.0 10.0 0.00 0.00 0.00 78 1011.7
20260903224904 87 99 3.0 13.0 0.00 0.00 0.00 78 1011.8
20260903224404 87 120 4.0 13.0 0.00 0.00 0.00 78 1011.9
20260903223904 87 123 3.0 13.0 0.00 0.00 0.00 77 1012.0
20260903223404 87 114 5.0 9.0 0.00 0.00 0.00 77 1012.0
20260903222404 87 119 3.0 10.0 0.00 0.00 0.00 76 1011.9
20260903221904 87 129 3.0 10.0 0.00 0.00 0.00 76 1012.0
20260903221405 88 113 2.0 7.0 0.00 0.00 0.00 76 1012.1
20260903220904 87 129 1.0 8.0 0.00 0.00 0.00 76 1012.2
20260903215904 87 129 3.0 9.0 0.00 0.00 0.00 76 1012.0
20260903215405 87 127 3.0 9.0 0.00 0.00 0.00 76 1012.1
20260903214904 88 123 3.0 8.0 0.00 0.00 0.00 76 1012.3
20260903213903 88 114 3.0 6.0 0.00 0.00 0.00 76 1012.7
20260903213405 88 128 1.0 6.0 0.00 0.00 0.00 75 1012.8
20260903212904 88 129 3.0 6.0 0.00 0.00 0.00 76 1013.0
20260903212405 88 105 1.0 3.0 0.00 0.00 0.00 76 1012.8
20260903211905 88 107 1.0 3.0 0.00 0.00 0.00 76 1012.8
20260903211404 88 111 2.0 8.0 0.00 0.00 0.00 77 1012.9
20260903210904 88 89 3.0 8.0 0.00 0.00 0.00 77 1012.8
20260903210404 88 104 3.0 9.0 0.00 0.00 0.00 77 1012.9
20260903205903 88 126 4.0 9.0 0.00 0.00 0.00 77 1012.8
20260903205404 88 129 2.0 6.0 0.00 0.00 0.00 77 1012.9
20260903204905 88 125 3.0 7.0 0.00 0.00 0.00 76 1012.9
20260903204404 88 107 4.0 10.0 0.00 0.00 0.00 76 1012.7
20260903203904 88 60 2.0 10.0 0.00 0.00 0.00 76 1012.8
20260903203404 88 143 5.0 10.0 0.00 0.00 0.00 76 1013.0
20260903202404 88 95 5.0 13.0 0.00 0.00 0.00 74 1012.4
20260903201904 89 101 7.0 10.0 0.00 0.00 0.00 73 1012.5
20260903201405 90 141 4.0 8.0 0.00 0.00 0.00 72 1012.7
20260903200904 91 166 3.0 10.0 0.00 0.00 0.00 70 1012.9
20260903195904 93 138 7.0 13.0 0.00 0.00 0.00 66 1012.5
20260903195404 94 159 6.0 14.0 0.00 0.00 0.00 66 1012.7
20260903194905 95 161 9.0 14.0 0.00 0.00 0.00 65 1012.9
20260903194404 95 139 7.0 17.0 0.00 0.00 0.00 64 1013.0
20260903193904 95 137 10.0 17.0 0.00 0.00 0.00 65 1012.9
20260903193404 95 126 5.0 10.0 0.00 0.00 0.00 64 1012.8
20260903192905 95 96 4.0 12.0 0.00 0.00 0.00 62 1012.9
20260903192405 96 78 6.0 12.0 0.00 0.00 0.00 62 1012.8
20260903191904 96 132 6.0 12.0 0.00 0.00 0.00 63 1012.5
20260903191404 95 132 3.0 9.0 0.00 0.00 0.00 66 1012.5
20260903190904 95 47 5.0 9.0 0.00 0.00 0.00 64 1012.7
20260903185404 95 122 3.0 13.0 0.00 0.00 0.00 64 1012.8
20260903183404 96 51 3.0 6.0 0.00 0.00 0.00 64 1013.0
20260903182904 96 131 2.0 7.0 0.00 0.00 0.00 63 1013.0
20260903182405 96 113 3.0 7.0 0.00 0.00 0.00 63 1013.0
20260903181904 96 60 2.0 6.0 0.00 0.00 0.00 65 1013.1
20260903181403 95 71 3.0 6.0 0.00 0.00 0.00 64 1013.2
20260903180905 95 150 1.0 5.0 0.00 0.00 0.00 64 1013.2
20260903175905 94 133 1.0 3.0 0.00 0.00 0.00 65 1013.6
20260903175404 94 122 0.0 6.0 0.00 0.00 0.00 64 1013.7
20260903174904 94 119 3.0 6.0 0.00 0.00 0.00 64 1013.8
20260903174404 94 118 1.0 5.0 0.00 0.00 0.00 64 1013.8
20260903173904 94 148 1.0 6.0 0.00 0.00 0.00 65 1013.8
20260903173404 94 152 2.0 6.0 0.00 0.00 0.00 67 1013.7
20260903172904 93 161 0.0 6.0 0.00 0.00 0.00 67 1013.8
20260903172403 93 174 3.0 6.0 0.00 0.00 0.00 67 1013.9
20260903171905 93 165 2.0 7.0 0.00 0.00 0.00 68 1014.0
20260903171404 93 164 1.0 7.0 0.00 0.00 0.00 68 1014.0
20260903170404 92 161 2.0 6.0 0.00 0.00 0.00 69 1014.2
20260903165904 92 240 1.0 5.0 0.00 0.00 0.00 71 1014.3
20260903165404 91 213 3.0 5.0 0.00 0.00 0.00 72 1014.3
20260903164904 90 189 1.0 7.0 0.00 0.00 0.00 76 1014.4
20260903164403 90 168 2.0 7.0 0.00 0.00 0.00 76 1014.3
20260903163903 89 238 1.0 7.0 0.00 0.00 0.00 78 1014.2
20260903163404 88 189 2.0 7.0 0.00 0.00 0.00 80 1014.2
20260903162904 87 207 0.0 5.0 0.00 0.00 0.00 83 1014.1
20260903162404 86 208 2.0 5.0 0.00 0.00 0.00 83 1014.0
20260903161404 84 269 0.0 0.0 0.00 0.00 0.00 86 1013.9
20260903160904 84 269 0.0 0.0 0.00 0.00 0.00 87 1013.9
20260903160403 83 269 0.0 0.0 0.00 0.00 0.00 87 1013.9
20260903155904 83 269 0.0 0.0 0.00 0.00 0.00 88 1014.0
20260903155404 83 269 0.0 0.0 0.00 0.00 0.00 88 1014.0
20260903154904 82 269 0.0 0.0 0.00 0.00 0.00 88 1014.0
20260903154404 82 269 0.0 0.0 0.00 0.00 0.00 88 1014.1
20260903153904 82 269 0.0 0.0 0.00 0.00 0.00 88 1013.9
20260903153404 81 269 0.0 0.0 0.00 0.00 0.00 87 1014.0
20260903152404 81 269 0.0 0.0 0.00 0.00 0.00 86 1014.0
20260903151903 81 269 0.0 0.0 0.00 0.00 0.00 86 1014.0
20260903150904 80 269 0.0 1.0 0.00 0.00 0.00 85 1013.8
20260903150405 80 164 0.0 0.0 0.00 0.00 0.00 85 1013.9
20260903145905 80 164 0.0 0.0 0.00 0.00 0.00 86 1014.0
20260903145404 80 164 0.0 0.0 0.00 0.00 0.00 86 1014.0
20260903144904 80 164 0.0 0.0 0.00 0.00 0.00 86 1013.9
20260903144403 80 164 0.0 0.0 0.00 0.00 0.00 86 1013.9
20260903143404 80 164 0.0 0.0 0.00 0.00 0.00 85 1013.9
20260903142905 80 164 0.0 0.0 0.00 0.00 0.00 85 1013.9
20260903142403 80 164 0.0 0.0 0.00 0.00 0.00 85 1014.0
20260903141903 80 164 0.0 0.0 0.00 0.00 0.00 85 1014.1
20260903141405 80 164 0.0 0.0 0.00 0.00 0.00 84 1014.3
20260903140904 80 164 0.0 0.0 0.00 0.00 0.00 84 1014.3
20260903135904 80 164 0.0 0.0 0.00 0.00 0.00 84 1014.2
20260903135404 80 164 0.0 0.0 0.00 0.00 0.00 85 1014.1
20260903134904 80 164 0.0 0.0 0.00 0.00 0.00 84 1014.0
20260903134404 80 164 0.0 0.0 0.00 0.00 0.00 84 1014.1
20260903133904 80 164 0.0 0.0 0.00 0.00 0.00 84 1014.1
20260903133404 80 164 0.0 0.0 0.00 0.00 0.00 84 1014.2
20260903132904 81 164 0.0 1.0 0.00 0.00 0.00 84 1014.3
20260903132403 81 164 0.0 1.0 0.00 0.00 0.00 83 1014.3
20260903131404 81 164 1.0 5.0 0.00 0.00 0.00 83 1014.2
20260903130405 81 164 1.0 6.0 0.00 0.00 0.00 82 1014.1
20260903125405 81 162 2.0 13.0 0.00 0.00 0.00 83 1014.0
20260903124404 82 188 4.0 13.0 0.00 0.00 0.00 88 1013.9
20260903123905 82 161 5.0 13.0 0.00 0.00 0.00 90 1013.7
20260903123403 82 207 1.0 3.0 0.00 0.00 0.00 89 1013.7
20260903122904 83 207 1.0 2.0 0.00 0.00 0.00 89 1013.5
20260903122404 83 207 0.0 0.0 0.00 0.00 0.00 89 1013.5
20260903121904 83 207 0.0 0.0 0.00 0.00 0.00 89 1013.3
20260903121404 83 207 0.0 0.0 0.00 0.00 0.00 89 1013.2
20260903120903 83 207 0.0 0.0 0.00 0.00 0.00 89 1013.1
20260903120404 83 207 0.0 0.0 0.00 0.00 0.00 89 1013.2
20260903115904 83 207 0.0 0.0 0.00 0.00 0.00 89 1013.3
20260903114904 83 207 0.0 1.0 0.00 0.00 0.00 89 1013.2
20260903114404 83 207 0.0 1.0 0.00 0.00 0.00 89 1013.1
20260903113904 83 207 0.0 2.0 0.00 0.00 0.00 89 1013.2
20260903113404 83 207 1.0 2.0 0.00 0.00 0.00 89 1013.2
20260903112904 83 206 0.0 5.0 0.00 0.00 0.00 89 1013.1
20260903112404 83 169 1.0 5.0 0.00 0.00 0.00 88 1013.1
20260903111404 83 167 0.0 3.0 0.00 0.00 0.00 88 1013.0
20260903110904 83 165 0.0 2.0 0.00 0.00 0.00 88 1012.9
20260903110404 83 165 1.0 5.0 0.00 0.00 0.00 88 1012.9
20260903105904 83 163 0.0 5.0 0.00 0.00 0.00 88 1012.9
20260903105404 83 163 1.0 5.0 0.00 0.00 0.00 88 1012.8
20260903104904 83 163 0.0 2.0 0.00 0.00 0.00 88 1012.8
20260903104404 83 163 0.0 2.0 0.00 0.00 0.00 88 1012.8
20260903103904 83 163 1.0 5.0 0.00 0.00 0.00 88 1012.8
20260903103404 83 162 2.0 5.0 0.00 0.00 0.00 88 1012.8
20260903102904 83 161 1.0 5.0 0.00 0.00 0.00 88 1012.8
20260903102404 83 161 0.0 2.0 0.00 0.00 0.00 88 1012.8
20260903101904 83 161 0.0 2.0 0.00 0.00 0.00 88 1012.7
20260903101404 83 161 0.0 2.0 0.00 0.00 0.00 88 1012.7
20260903100904 83 160 1.0 2.0 0.00 0.00 0.00 87 1012.6
20260903100405 83 160 1.0 3.0 0.00 0.00 0.00 87 1012.6
20260903095904 83 157 0.0 3.0 0.00 0.00 0.00 87 1012.6
20260903094903 83 151 2.0 5.0 0.00 0.00 0.00 87 1012.5
20260903094404 83 161 1.0 5.0 0.00 0.00 0.00 87 1012.5
20260903093903 83 163 2.0 5.0 0.00 0.00 0.00 87 1012.6
20260903092904 83 162 2.0 6.0 0.00 0.00 0.00 87 1012.7
20260903092404 83 144 1.0 6.0 0.00 0.00 0.00 87 1012.7
20260903091404 83 163 2.0 6.0 0.00 0.00 0.00 87 1012.8
20260903090404 83 148 3.0 6.0 0.00 0.00 0.00 87 1012.9
20260903085904 83 168 3.0 5.0 0.00 0.00 0.00 87 1012.8
20260903085404 83 172 2.0 3.0 0.00 0.00 0.00 87 1012.8
20260903084404 83 167 1.0 5.0 0.00 0.00 0.00 87 1012.7
20260903083904 83 161 2.0 5.0 0.00 0.00 0.00 87 1012.7
20260903083404 83 178 3.0 5.0 0.00 0.00 0.00 87 1012.7
20260903082903 83 184 2.0 5.0 0.00 0.00 0.00 87 1012.7
20260903082404 83 146 2.0 7.0 0.00 0.00 0.00 87 1012.6
20260903081404 83 162 2.0 7.0 0.00 0.00 0.00 87 1012.6
20260903080403 83 157 0.0 6.0 0.00 0.00 0.00 87 1012.5
20260903075904 83 161 1.0 5.0 0.00 0.00 0.00 87 1012.5
20260903075404 83 160 2.0 5.0 0.00 0.00 0.00 87 1012.4
20260903074904 83 184 2.0 8.0 0.00 0.00 0.00 87 1012.4
20260903073905 83 167 3.0 8.0 0.00 0.00 0.00 87 1012.5
20260903073405 83 168 3.0 6.0 0.00 0.00 0.00 87 1012.4
20260903072903 83 156 2.0 7.0 0.00 0.00 0.00 86 1012.4
20260903072404 83 160 3.0 7.0 0.00 0.00 0.00 87 1012.5
20260903071904 83 154 2.0 7.0 0.00 0.00 0.00 87 1012.6
20260903070905 83 167 1.0 8.0 0.00 0.00 0.00 87 1012.7
20260903070404 83 156 7.0 8.0 0.00 0.00 0.00 87 1012.7
20260903065403 83 182 3.0 8.0 0.00 0.00 0.00 87 1012.8
20260903064903 83 133 1.0 6.0 0.00 0.00 0.00 87 1013.0
20260903063904 83 173 2.0 6.0 0.00 0.00 0.00 86 1012.9
20260903063404 83 159 2.0 6.0 0.00 0.00 0.00 86 1013.0
20260903062904 83 161 2.0 6.0 0.00 0.00 0.00 86 1013.0
20260903062404 83 159 2.0 6.0 0.00 0.00 0.00 86 1013.1
20260903061905 83 155 2.0 3.0 0.00 0.00 0.00 86 1013.2
20260903061404 84 151 1.0 3.0 0.00 0.00 0.00 85 1013.3
20260903060904 84 140 1.0 5.0 0.00 0.00 0.00 85 1013.3
20260903060404 84 165 1.0 5.0 0.00 0.00 0.00 85 1013.5
20260903055905 84 165 1.0 2.0 0.00 0.00 0.00 85 1013.7
20260903055403 84 165 1.0 2.0 0.00 0.00 0.00 84 1013.7
20260903054905 84 165 1.0 5.0 0.00 0.00 0.00 84 1013.6
20260903054405 84 165 2.0 5.0 0.00 0.00 0.00 84 1013.7
20260903053405 84 165 1.0 3.0 0.00 0.00 0.00 84 1013.5
20260903052904 84 158 2.0 3.0 0.00 0.00 0.00 84 1013.5
20260903052404 84 153 0.0 5.0 0.00 0.00 0.00 84 1013.6
20260903051904 84 152 2.0 5.0 0.00 0.00 0.00 84 1013.6
20260903051404 84 128 1.0 3.0 0.00 0.00 0.00 84 1013.6
20260903050405 84 148 2.0 5.0 0.00 0.24 0.00 83 1013.5
20260903045403 84 157 2.0 5.0 0.00 1.23 0.00 83 1013.6
20260903044404 84 145 0.0 3.0 0.00 2.22 0.00 83 1013.9
20260903043904 84 144 1.0 5.0 0.00 2.82 0.00 83 1013.9
20260903043404 85 144 1.0 5.0 0.00 3.36 0.00 83 1014.0
20260903042904 85 137 2.0 5.0 0.00 3.75 0.00 83 1013.9
20260903041404 85 148 2.0 6.0 0.00 5.10 0.00 83 1013.8
20260903040904 85 149 2.0 6.0 0.00 5.52 0.00 83 1013.9